Flag for U.S.A. Weather past 2 weeks in St. George, Utah, U.S.A.

Now
61 °F

Sunny.


Feels Like: 61 °F
Forecast: 46 / 79 °F
Wind: 7 mph from Southeast

Location: Saint George

Current Time: Apr 17, 2015 at 9:41:59 PM

Latest Report: Apr 17, 2015 at 8:55 PM


Visibility: 10 mi

Pressure: 29.98 "Hg

Humidity: 27%

Dew point: 27 °F

Location of St. GeorgeLocation

Historic Weather in St. George — Graph

°F

St. George temperature yesterday

Maximum temperature yesterday: 63 °F (at 4:35 PM)
Minimum temperature yesterday: 39 °F (at 5:15 AM)
Average temperature yesterday: 52 °F

Past Weeks' High & Low Weather Summary

 TemperatureHumidityPressure
High82 °F (Apr 13, 3:15 PM)53% (Apr 17, 5:55 AM)30.35 "Hg (Apr 17, 5:55 AM)
Low37 °F (Apr 3, 7:35 AM)10% (Apr 3, 3:35 PM)29.67 "Hg (Apr 5, 5:15 PM)
Average59 °F20%29.98 "Hg
* Reported Apr 2 8:15 PM — Apr 17 8:35 PM, St. George, Weather by CustomWeather, © 2015

Note: Actual official high and low records may vary slightly from our data, if they occured in-between our weather recording intervals... More about our weather records

Advertising

St. George weather history for previous 24 hours

 ConditionsComfort  
Time TempWeatherWind HumidityBarometerVisibility
8:35 PM
Fri, Apr 17
64 °FSunny.6 mph26%29.97 "Hg10 mi
8:15 PM66 °FSunny.6 mph24%29.97 "Hg10 mi
7:55 PM68 °FSunny.3 mph23%29.97 "Hg10 mi
7:35 PM70 °FSunny.3 mph21%29.97 "Hg10 mi
7:15 PM70 °FSunny.3 mph21%29.97 "Hg10 mi
6:55 PM70 °FSunny.No wind21%29.97 "Hg10 mi
6:35 PM70 °FSunny.7 mph21%29.98 "Hg10 mi
6:15 PM70 °FSunny.7 mph21%29.98 "Hg10 mi
5:55 PM68 °FSunny.5 mph23%29.98 "Hg10 mi
5:35 PM68 °FSunny.5 mph23%29.98 "Hg10 mi
5:15 PM70 °FSunny.7 mph23%29.98 "Hg10 mi
4:55 PM70 °FSunny.5 mph23%29.99 "Hg10 mi
4:35 PM66 °FSunny.6 mph24%29.99 "Hg10 mi
4:15 PM66 °FSunny.3 mph24%29.99 "Hg10 mi
3:55 PM66 °FSunny.No wind24%30.00 "Hg10 mi
3:35 PM70 °FSunny.7 mph23%30.01 "Hg10 mi
3:15 PM66 °FPassing clouds.8 mph26%30.02 "Hg10 mi
2:55 PM66 °FSunny.8 mph26%30.03 "Hg10 mi
2:35 PM64 °FSunny.8 mph26%30.04 "Hg10 mi
2:15 PM66 °FSunny.9 mph26%30.05 "Hg10 mi
1:55 PM63 °FSunny.8 mph27%30.06 "Hg10 mi
1:35 PM63 °FPassing clouds.7 mph27%30.07 "Hg10 mi
1:15 PM63 °FSunny.9 mph30%30.09 "Hg10 mi
12:55 PM61 °FSunny.7 mph29%30.09 "Hg10 mi
12:35 PM61 °FSunny.5 mph29%30.09 "Hg10 mi
12:15 PM59 °FSunny.5 mph31%30.10 "Hg10 mi
11:55 AM57 °FSunny.3 mph36%30.11 "Hg10 mi
11:35 AM55 °FSunny.3 mph36%30.11 "Hg10 mi
11:15 AM54 °FSunny.No wind41%30.11 "Hg10 mi
10:55 AM52 °FSunny.3 mph41%30.11 "Hg10 mi
10:35 AM48 °FSunny.3 mph46%30.13 "Hg10 mi
10:15 AM48 °FSunny.6 mph46%30.13 "Hg10 mi
9:55 AM46 °FSunny.7 mph46%30.14 "Hg10 mi
9:35 AM46 °FSunny.7 mph46%30.14 "Hg10 mi
9:15 AM46 °FSunny.5 mph46%30.14 "Hg10 mi
8:55 AM45 °FSunny.5 mph49%30.14 "Hg10 mi
8:35 AM43 °FSunny.6 mph53%30.14 "Hg10 mi
8:15 AM43 °FSunny.6 mph53%30.13 "Hg10 mi
7:55 AM43 °FClear.8 mph53%30.13 "Hg10 mi
7:35 AM43 °FClear.6 mph53%30.12 "Hg10 mi
7:15 AM43 °FClear.6 mph53%30.12 "Hg10 mi
6:55 AM43 °FClear.9 mph53%30.12 "Hg10 mi
6:35 AM43 °FClear.7 mph53%30.12 "Hg10 mi
6:15 AM43 °FClear.7 mph53%30.13 "Hg10 mi
5:55 AM43 °FClear.8 mph53%30.12 "Hg10 mi
5:35 AM45 °FClear.6 mph49%30.13 "Hg10 mi
5:15 AM45 °FClear.12 mph49%30.12 "Hg10 mi
4:55 AM45 °FClear.12 mph49%30.13 "Hg10 mi
4:35 AM45 °FClear.10 mph49%30.13 "Hg10 mi
3:55 AM46 °FClear.9 mph46%30.13 "Hg10 mi
3:35 AM46 °FClear.9 mph46%30.13 "Hg10 mi
3:15 AM46 °FClear.9 mph50%30.13 "Hg10 mi
2:55 AM46 °FClear.10 mph50%30.13 "Hg10 mi
2:35 AM48 °FClear.6 mph46%30.14 "Hg10 mi
2:15 AM48 °FClear.7 mph46%30.14 "Hg10 mi
1:55 AM48 °FClear.8 mph50%30.12 "Hg10 mi
1:35 AM50 °FClear.13 mph47%30.14 "Hg10 mi
1:15 AM52 °FPassing clouds.12 mph44%30.13 "Hg10 mi
12:55 AM54 °FPassing clouds.13 mph41%30.14 "Hg10 mi
12:35 AM54 °FPassing clouds.16 mph41%30.13 "Hg10 mi
12:15 AM55 °FPassing clouds.15 mph38%30.11 "Hg10 mi
11:55 PM
Thu, Apr 16
54 °FPassing clouds.13 mph41%30.12 "Hg10 mi
11:35 PM55 °FPassing clouds.22 mph38%30.12 "Hg10 mi
11:15 PM55 °FClear.21 mph38%30.11 "Hg10 mi
10:55 PM55 °FClear.22 mph38%30.10 "Hg10 mi
10:35 PM55 °FClear.14 mph36%30.09 "Hg10 mi
10:15 PM55 °FClear.16 mph38%30.08 "Hg10 mi
9:35 PM57 °FPassing clouds.No wind31%30.05 "Hg10 mi
9:15 PM57 °FClear.3 mph31%30.05 "Hg10 mi
Weather by CustomWeather, © 2015

See weather overviewHow to use our weather pages